Wind_Speed
31 29 27 24 23 23 24 24 25 23 22 19 22 24 26 28 29 29 29 31 32 34 36 40 45 46 47 49 50 52 54 54 55 54 53 53 52 50 50 49 48 47 47 46
31 28 26 25 23 24 25 26 26 26 23 21 22 25 26 28 30 31 31 32 33 34 36 39 43 45 46 48 48 51 52 53 54 54 53 52 51 50 50 49 49 48 47 46
31 29 27 24 23 24 25 26 27 26 24 23 23 25 27 28 29 31 32 33 34 36 36 37 41 43 46 48 48 49 50 52 53 54 54 53 51 50 49 49 49 48 47 47
33 30 27 25 24 24 25 25 26 26 25 24 24 25 26 28 29 30 31 33 34 36 38 39 40 42 44 47 48 49 50 51 51 52 53 53 52 51 50 49 48 47 47 46
34 32 29 27 26 26 26 26 26 26 26 25 25 25 26 27 29 30 31 32 34 35 37 39 41 42 44 45 47 49 49 50 50 52 53 52 52 51 50 49 48 47 46 45
34 33 31 29 28 27 27 27 26 26 26 26 26 26 26 28 29 29 30 31 33 35 36 38 41 43 44 44 45 47 48 49 50 52 52 52 52 52 51 51 49 47 45 44
34 34 32 30 29 28 28 27 26 26 26 26 25 25 26 27 28 28 29 30 33 35 35 38 40 43 43 43 44 45 47 49 49 50 51 52 51 50 50 50 49 48 46 45
35 34 33 32 31 30 29 28 27 27 27 27 26 26 26 26 27 28 29 30 32 35 36 37 40 42 43 42 44 45 46 48 49 50 49 49 49 49 48 47 48 48 47 45
35 34 34 33 32 31 30 29 28 28 28 27 27 27 27 27 28 28 30 31 32 34 36 37 39 42 43 43 44 44 45 46 47 47 48 49 48 47 47 47 47 47 46 45
36 33 33 33 33 32 30 29 29 28 28 28 27 27 28 27 29 30 31 31 31 33 34 35 37 40 42 43 45 44 45 46 47 47 47 47 47 46 46 45 44 45 45 44
36 34 34 33 33 31 29 29 29 28 28 28 28 26 27 27 28 29 29 30 31 33 33 34 36 39 40 42 43 44 45 46 46 48 47 47 47 45 44 43 42 43 42 42
36 35 34 33 32 30 30 29 29 28 28 29 29 28 27 28 28 28 29 30 31 32 33 34 36 38 40 40 42 43 44 44 45 46 47 47 46 45 44 44 43 42 41 40
36 35 34 32 31 30 29 29 28 28 27 28 28 28 28 27 28 28 29 30 31 32 33 33 35 37 39 40 41 42 43 44 44 44 45 45 45 45 44 44 44 43 41 40
35 34 32 31 30 29 29 28 27 27 26 26 26 27 27 27 27 27 28 29 31 32 32 33 35 37 39 40 40 40 42 43 44 44 44 44 44 44 43 43 43 42 41 40
34 32 31 30 30 29 29 28 27 26 25 25 25 26 26 26 26 26 27 28 30 32 33 33 34 35 37 38 40 40 41 42 42 42 42 43 43 42 42 41 41 41 40 39
31 30 30 29 29 29 28 28 27 26 26 25 25 26 25 25 24 25 26 26 28 30 31 32 32 33 35 37 38 39 39 40 41 41 41 41 41 40 39 39 40 39 38 37
29 29 29 28 28 28 28 28 27 27 26 26 26 26 25 24 24 24 24 25 26 28 30 30 30 31 33 35 37 38 39 39 39 39 40 39 39 38 38 37 38 38 37 37
29 28 28 28 28 28 28 28 28 27 27 26 26 26 26 25 24 24 24 25 26 28 29 29 30 31 33 34 35 37 38 38 38 37 37 37 37 37 37 38 38 37 37 37
29 28 28 28 28 28 27 27 27 27 26 26 26 25 25 25 25 25 24 24 24 25 27 28 29 30 31 33 34 35 36 36 36 37 37 37 37 37 37 36 37 36 36 35
30 29 29 28 28 27 27 27 27 26 26 25 25 25 25 25 26 26 25 24 23 24 25 26 28 29 31 32 34 35 35 35 36 37 38 38 37 37 36 36 36 36 35 34
30 30 29 28 28 27 27 26 26 25 25 25 25 25 25 25 26 26 25 25 25 25 25 26 27 29 31 33 34 35 36 36 36 36 38 38 37 36 35 35 35 35 34 33
30 29 28 28 28 27 26 25 25 24 24 24 24 24 24 25 26 27 27 26 26 25 25 25 26 27 29 32 33 34 36 36 36 36 37 38 37 35 33 33 34 34 34 33
30 29 28 27 27 26 25 25 24 23 23 23 24 24 24 26 26 27 27 27 27 26 25 25 25 26 27 30 31 33 34 35 35 35 36 36 36 35 33 32 33 32 32 31
29 29 28 27 26 26 25 25 24 23 23 23 23 23 23 24 26 27 27 27 26 26 26 26 26 26 26 28 30 32 32 34 35 35 35 36 35 34 34 33 31 31 31 30
29 28 27 26 26 25 25 25 24 24 23 22 22 22 23 24 26 27 26 26 25 25 26 26 26 26 27 27 28 30 32 33 34 34 34 35 35 34 33 32 32 31 29 28
29 28 27 27 26 26 25 25 25 24 23 22 22 22 22 23 24 26 27 26 26 25 25 26 27 27 27 27 28 30 32 33 34 34 34 34 35 35 34 32 31 30 29 27
28 28 27 27 27 26 25 24 23 22 21 21 21 22 22 22 24 26 27 26 26 26 26 27 27 27 28 28 29 30 31 33 34 35 34 33 35 35 35 33 31 30 28 26
Wind_Direction
317 313 307 299 293 290 287 285 284 281 277 274 264 258 252 246 242 240 238 236 233 230 227 224 221 220 220 221 221 221 221 221 221 221 223 224 225 226 229 231 233 236 238 241
315 312 306 297 291 288 286 284 284 281 278 277 268 262 256 249 245 244 241 238 236 231 227 225 223 221 220 221 222 221 222 222 222 222 223 223 225 227 230 231 233 236 239 241
314 310 304 297 294 288 286 286 283 280 279 275 269 264 260 253 248 246 242 240 238 233 229 227 225 223 222 222 222 222 222 221 222 222 222 224 225 227 229 231 233 236 238 241
313 310 304 301 292 288 287 287 283 280 277 275 270 265 260 255 249 246 243 241 237 233 230 228 226 225 223 222 222 222 222 221 221 221 222 224 225 227 229 231 233 235 238 241
312 307 303 298 294 291 287 287 285 280 277 273 267 263 260 257 252 248 245 241 237 233 230 229 227 226 224 223 223 222 221 221 221 222 223 225 226 227 229 230 232 234 237 240
309 306 304 301 295 292 290 290 286 282 279 273 268 264 260 255 253 250 246 241 236 233 231 230 228 226 225 224 224 224 223 221 221 222 224 225 227 228 229 231 232 234 237 239
305 303 303 301 296 293 290 290 287 283 278 272 267 263 260 256 253 252 248 243 237 234 233 230 227 225 224 224 224 225 225 223 222 223 225 226 227 228 229 231 232 234 236 238
301 300 301 299 295 291 289 286 285 283 279 274 268 263 260 256 254 252 248 245 239 235 234 231 227 225 223 223 224 224 225 224 224 225 226 227 228 228 229 231 233 235 236 238
297 297 297 296 294 290 288 285 283 282 278 275 270 264 260 256 255 252 249 246 241 237 233 231 228 226 224 223 224 224 225 225 226 226 226 227 229 231 231 232 233 235 236 238
294 295 293 293 292 289 287 284 282 281 278 274 272 266 261 257 255 252 248 244 240 235 232 229 227 225 225 223 223 223 225 226 227 227 227 228 229 231 232 233 235 235 236 238
293 293 291 291 290 287 284 283 282 281 278 274 269 266 262 258 255 253 249 242 237 234 231 228 227 226 224 223 222 223 224 225 226 227 227 228 229 230 232 233 236 237 238 240
293 291 289 290 288 285 283 281 279 278 276 273 269 267 264 259 255 253 248 242 237 234 233 229 227 226 225 224 223 223 223 223 224 227 227 228 228 229 231 232 234 236 237 239
292 289 288 287 286 282 281 280 279 277 274 271 268 267 267 262 256 252 246 239 235 234 233 230 227 226 226 224 224 223 222 222 223 225 226 228 230 230 231 231 232 234 236 238
291 289 286 284 283 282 280 280 279 277 273 270 267 266 268 264 257 250 244 238 235 234 233 230 227 227 226 225 224 224 223 222 223 224 225 226 229 230 230 232 232 232 233 234
289 287 285 283 282 281 280 279 278 276 273 269 265 265 266 264 258 250 244 239 234 231 230 229 227 226 225 225 224 223 223 222 221 223 225 225 226 228 229 230 230 230 230 232
289 287 285 284 283 281 279 279 278 275 271 267 265 264 261 259 255 250 244 241 233 229 228 228 227 226 225 223 223 222 221 220 221 221 221 223 224 225 226 227 228 227 228 231
289 286 284 285 284 281 279 278 276 273 270 265 263 260 258 254 250 245 242 239 233 227 226 227 226 225 226 225 224 222 219 219 220 220 221 222 222 223 224 224 225 226 227 229
288 285 283 284 284 281 278 276 275 272 269 264 260 258 255 252 246 240 238 236 232 228 226 225 224 223 224 224 223 221 219 219 219 219 219 219 220 221 223 224 224 224 224 226
288 286 285 284 284 281 278 276 274 272 268 264 259 255 253 249 241 236 234 232 231 228 226 225 224 224 224 224 223 220 217 217 216 217 215 214 216 218 219 221 222 223 224 225
287 287 286 284 284 283 280 277 275 271 267 263 258 253 249 245 239 234 230 229 228 227 226 226 226 224 223 222 220 218 216 215 215 215 213 213 213 215 217 219 221 221 221 224
288 287 285 283 282 282 280 276 273 269 264 261 257 252 247 243 238 232 228 227 226 227 225 226 226 224 222 219 217 215 214 213 214 214 213 212 213 214 215 216 217 218 219 219
287 285 284 282 280 279 278 275 272 268 263 259 255 250 245 241 236 231 227 226 226 226 225 225 224 223 223 219 216 214 213 213 213 213 212 210 210 210 211 214 215 215 216 217
286 284 283 281 277 275 274 273 271 267 263 258 252 247 243 238 234 229 225 223 223 224 223 222 221 221 219 217 215 212 211 211 211 211 209 207 207 209 211 212 211 212 214 216
286 282 281 280 276 272 271 270 269 266 262 258 253 248 241 235 230 226 223 221 221 220 219 219 218 216 214 214 213 210 209 208 207 208 207 205 206 207 208 207 208 210 212 213
285 283 280 277 274 270 268 267 266 264 261 256 250 244 238 233 227 223 220 218 218 217 216 215 214 212 211 211 211 209 207 205 204 205 206 205 205 205 204 205 206 208 209 211
284 283 280 275 272 270 268 266 266 262 258 252 247 241 236 231 224 218 215 214 214 214 213 211 209 208 208 208 207 205 205 204 202 202 203 205 205 204 202 203 204 206 209 211
282 280 278 275 271 268 266 264 262 258 253 248 242 236 231 226 220 216 213 212 213 212 211 209 209 209 207 206 204 203 203 202 200 200 201 203 205 204 203 203 205 205 207 211
Height
5554 5549 5545 5542 5540 5538 5534 5532 5530 5530 5529 5529 5528 5527 5527 5528 5529 5531 5534 5537 5540 5543 5547 5552 5558 5565 5571 5578 5585 5593 5601 5609 5617 5625 5633 5641 5648 5654 5660 5666 5671 5677 5681 5685
5548 5544 5539 5536 5535 5532 5529 5526 5523 5522 5522 5522 5520 5519 5520 5521 5522 5524 5526 5529 5532 5535 5540 5544 5550 5556 5563 5570 5576 5584 5591 5600 5608 5616 5624 5631 5639 5645 5651 5657 5662 5667 5672 5676
5541 5537 5533 5530 5529 5525 5522 5520 5517 5515 5515 5513 5513 5512 5513 5513 5514 5516 5518 5521 5524 5527 5532 5537 5542 5548 5555 5561 5568 5575 5582 5590 5598 5606 5614 5622 5629 5636 5642 5648 5653 5658 5663 5668
5533 5530 5526 5526 5521 5518 5515 5513 5510 5508 5507 5506 5505 5505 5505 5506 5507 5508 5510 5512 5515 5519 5524 5529 5534 5540 5546 5552 5559 5566 5573 5580 5588 5596 5604 5612 5620 5626 5632 5638 5644 5649 5654 5659
5525 5520 5517 5517 5513 5510 5507 5506 5503 5501 5500 5499 5497 5497 5498 5498 5498 5500 5501 5504 5507 5511 5515 5520 5525 5531 5537 5543 5550 5556 5563 5571 5578 5587 5595 5603 5610 5617 5623 5629 5634 5640 5645 5649
5517 5511 5509 5510 5505 5501 5500 5498 5496 5493 5492 5490 5490 5490 5491 5490 5491 5492 5493 5495 5498 5502 5507 5511 5516 5522 5529 5535 5541 5547 5554 5562 5569 5577 5586 5593 5600 5607 5613 5619 5625 5631 5635 5640
5508 5503 5501 5500 5496 5493 5493 5491 5487 5485 5484 5483 5482 5482 5482 5482 5483 5484 5485 5487 5490 5494 5498 5503 5508 5514 5520 5526 5533 5539 5546 5553 5561 5568 5576 5584 5591 5597 5603 5610 5615 5621 5626 5631
5500 5496 5496 5491 5487 5485 5483 5481 5478 5477 5475 5475 5474 5474 5474 5474 5475 5475 5477 5479 5482 5485 5489 5494 5499 5505 5512 5518 5524 5531 5538 5545 5552 5559 5567 5574 5580 5587 5594 5599 5605 5611 5616 5621
5492 5491 5486 5481 5478 5475 5473 5471 5469 5468 5467 5466 5466 5465 5466 5466 5467 5468 5469 5471 5473 5477 5481 5485 5490 5496 5503 5510 5516 5523 5529 5536 5543 5550 5557 5564 5571 5577 5584 5590 5595 5601 5606 5611
5481 5480 5476 5472 5468 5466 5464 5462 5460 5459 5458 5457 5457 5456 5457 5458 5458 5459 5461 5462 5465 5468 5472 5477 5482 5488 5494 5501 5507 5514 5520 5527 5533 5540 5547 5555 5561 5568 5574 5580 5586 5592 5597 5601
5470 5469 5465 5462 5459 5456 5454 5452 5451 5450 5449 5448 5448 5448 5448 5449 5450 5451 5452 5454 5457 5460 5464 5468 5473 5479 5485 5491 5498 5504 5511 5518 5524 5531 5538 5545 5552 5558 5565 5571 5577 5583 5588 5593
5460 5458 5454 5452 5449 5447 5444 5443 5442 5440 5440 5439 5438 5438 5439 5439 5441 5442 5443 5445 5448 5452 5455 5460 5464 5470 5476 5482 5488 5495 5502 5508 5515 5521 5528 5535 5542 5549 5555 5562 5567 5573 5578 5584
5448 5446 5443 5441 5439 5437 5435 5433 5432 5431 5430 5429 5429 5429 5429 5430 5431 5433 5434 5437 5440 5443 5447 5451 5456 5461 5466 5472 5479 5485 5492 5499 5505 5512 5519 5526 5532 5539 5545 5551 5557 5563 5569 5574
5437 5435 5433 5431 5429 5427 5425 5423 5422 5421 5420 5420 5420 5420 5420 5421 5422 5423 5426 5428 5432 5435 5439 5442 5447 5452 5456 5462 5469 5475 5482 5489 5496 5502 5509 5516 5523 5529 5536 5542 5548 5554 5559 5565
5427 5424 5423 5421 5419 5417 5416 5414 5413 5412 5412 5411 5411 5411 5412 5412 5413 5415 5417 5419 5423 5426 5430 5434 5439 5443 5447 5453 5459 5466 5472 5479 5486 5492 5499 5506 5513 5519 5526 5532 5538 5544 5550 5555
5417 5414 5412 5411 5409 5408 5406 5405 5404 5404 5403 5403 5403 5403 5403 5404 5405 5407 5409 5411 5414 5418 5422 5426 5430 5435 5439 5444 5450 5456 5463 5469 5476 5483 5490 5497 5503 5510 5516 5522 5529 5535 5541 5547
5407 5405 5403 5401 5400 5398 5397 5396 5395 5394 5394 5394 5394 5394 5395 5396 5397 5399 5401 5404 5406 5410 5414 5418 5422 5426 5431 5435 5441 5447 5454 5460 5467 5473 5481 5488 5495 5501 5508 5514 5520 5526 5533 5539
5397 5395 5393 5392 5390 5389 5388 5387 5386 5385 5385 5385 5385 5386 5387 5388 5390 5392 5394 5396 5399 5403 5406 5410 5414 5419 5423 5427 5433 5439 5445 5451 5458 5465 5472 5479 5486 5493 5499 5506 5512 5518 5524 5530
5387 5385 5384 5382 5380 5379 5378 5377 5376 5375 5375 5375 5376 5377 5378 5379 5381 5384 5386 5389 5392 5395 5399 5402 5406 5410 5415 5419 5425 5430 5437 5443 5450 5457 5464 5471 5477 5484 5491 5497 5504 5510 5516 5522
5377 5376 5374 5372 5370 5369 5367 5366 5366 5365 5365 5365 5366 5368 5369 5371 5373 5376 5379 5382 5385 5388 5392 5395 5399 5403 5407 5412 5417 5423 5429 5436 5442 5449 5456 5463 5470 5476 5483 5489 5496 5502 5508 5514
5367 5366 5364 5362 5360 5359 5357 5356 5356 5356 5356 5356 5357 5358 5360 5363 5365 5368 5371 5375 5378 5381 5385 5388 5391 5395 5400 5404 5410 5415 5422 5429 5435 5441 5448 5455 5462 5469 5476 5482 5488 5495 5501 5507
5357 5355 5354 5352 5350 5349 5348 5347 5346 5346 5347 5348 5348 5350 5352 5354 5357 5360 5363 5367 5371 5374 5377 5381 5385 5388 5392 5397 5403 5408 5415 5422 5428 5435 5442 5449 5456 5463 5469 5476 5482 5488 5494 5500
5347 5345 5343 5342 5341 5340 5339 5338 5338 5338 5339 5339 5340 5341 5343 5346 5348 5352 5356 5359 5362 5366 5370 5374 5378 5382 5385 5390 5396 5402 5408 5415 5422 5428 5435 5442 5449 5456 5463 5469 5475 5481 5488 5494
5336 5334 5333 5332 5331 5331 5330 5330 5329 5330 5330 5331 5331 5333 5335 5337 5340 5344 5348 5352 5355 5359 5363 5367 5371 5375 5379 5384 5390 5396 5402 5408 5415 5422 5428 5435 5442 5449 5456 5463 5469 5475 5482 5488
5325 5324 5323 5322 5321 5321 5321 5321 5321 5321 5322 5323 5323 5325 5327 5329 5333 5336 5340 5344 5348 5352 5357 5361 5365 5369 5374 5379 5384 5390 5396 5402 5409 5416 5422 5429 5436 5443 5450 5457 5464 5470 5476 5482
5315 5314 5313 5312 5311 5311 5311 5312 5312 5312 5313 5314 5316 5317 5319 5322 5325 5329 5333 5338 5342 5346 5350 5355 5359 5364 5369 5373 5378 5384 5390 5396 5403 5410 5417 5424 5431 5438 5445 5452 5459 5465 5471 5477
5304 5303 5302 5302 5301 5301 5301 5302 5303 5304 5305 5306 5308 5310 5312 5315 5318 5322 5327 5331 5336 5340 5344 5349 5354 5358 5363 5368 5373 5379 5385 5391 5398 5405 5412 5418 5425 5433 5440 5447 5453 5460 5466 5471